WetterOnline ( https://www.wetteronline.de )

Wetter aktuell Frankfurt am Main

Aktuelles Wetter: Offenbach (119m)

6-stündlich | Neueste Meldungen
Ortszeit Temperatur Wetter
So, 16.06. 2:00 13.7° C leicht bewölkt
Sa, 15.06. 20:00 19.6° C wolkenlos
Sa, 15.06. 14:00 20.3° C fast wolkenlos
Sa, 15.06. 8:00 14.7° C leichter Regen
Sa, 15.06. 2:00 16.3° C bedeckt
Fr, 14.06. 20:00 19.1° C bewölkt
Fr, 14.06. 14:00 15.7° C bedeckt
Fr, 14.06. 8:00 13.1° C leichter Regen
Ortszeit Temperatur Wetter
So, 16.06. 7:00 14.9° C bewölkt
So, 16.06. 6:50 14.9° C bewölkt
So, 16.06. 6:40 14.9° C bewölkt
So, 16.06. 6:30 13.9° C wolkig
So, 16.06. 6:20 13.9° C wolkig
So, 16.06. 6:10 13.7° C bedeckt
So, 16.06. 6:00 12.7° C bewölkt
So, 16.06. 5:30 12.5° C bedeckt
So, 16.06. 5:00 12.9° C bewölkt
So, 16.06. 4:30 12.5° C bewölkt
So, 16.06. 4:00 12.2° C bewölkt
Ortszeit Relative Feuchte Sichtweite
So, 16.06. 2:00 65% -
Sa, 15.06. 20:00 37% 55 km
Sa, 15.06. 14:00 42% 65 km
Sa, 15.06. 8:00 91% 12 km
Sa, 15.06. 2:00 82% 55 km
Fr, 14.06. 20:00 66% 65 km
Fr, 14.06. 14:00 70% 45 km
Fr, 14.06. 8:00 70% 35 km
Ortszeit Relative Feuchte Sichtweite
So, 16.06. 7:00 72% 50 km
So, 16.06. 6:50 72% -
So, 16.06. 6:40 72% -
So, 16.06. 6:30 75% 50 km
So, 16.06. 6:20 75% -
So, 16.06. 6:10 76% -
So, 16.06. 6:00 84% 45 km
So, 16.06. 5:30 80% 45 km
So, 16.06. 5:00 77% 50 km
So, 16.06. 4:30 79% 40 km
So, 16.06. 4:00 82% 50 km
Ortszeit Niederschlagsmenge Niederschlagsart
So, 16.06. 2:00 0.0 l/m2 in 6 Std. -
Sa, 15.06. 20:00 1 l/m2 in 12 Std. -
Sa, 15.06. 14:00 1 l/m2 in 6 Std. Regen
Sa, 15.06. 8:00 4 l/m2 in 12 Std. Regen
Sa, 15.06. 2:00 0.4 l/m2 in 6 Std. Regen
Fr, 14.06. 20:00 0.1 l/m2 in 12 Std. -
Fr, 14.06. 14:00 0.1 l/m2 in 6 Std. Regen
Fr, 14.06. 8:00 0.1 l/m2 in 12 Std. Regen
Ortszeit Niederschlagsmenge Niederschlagsart
So, 16.06. 7:00 0.0 l/m2 in 1 Std. -
So, 16.06. 6:50 keine Meldung -
So, 16.06. 6:40 keine Meldung -
So, 16.06. 6:30 0.0 l/m2 in 30 Min -
So, 16.06. 6:20 keine Meldung -
So, 16.06. 6:10 keine Meldung -
So, 16.06. 6:00 0.0 l/m2 in 1 Std. -
So, 16.06. 5:30 0.0 l/m2 in 30 Min -
So, 16.06. 5:00 0.0 l/m2 in 1 Std. -
So, 16.06. 4:30 0.0 l/m2 in 30 Min -
So, 16.06. 4:00 0.0 l/m2 in 1 Std. -
Ortszeit Stärke Spitze Richtung
km/h Bft. km/h Grad Sektor
So, 16.06. 2:00 9 2 24 150° SO
Sa, 15.06. 20:00 13 3 46 230° SW
Sa, 15.06. 14:00 17 3 52 220° SW
Sa, 15.06. 8:00 11 2 36 190° S
Sa, 15.06. 2:00 13 3 26 130° SO
Fr, 14.06. 20:00 15 3 39 180° S
Fr, 14.06. 14:00 14 3 40 200° S
Fr, 14.06. 8:00 6 1 11 170° S
Ortszeit Stärke Spitze Richtung
km/h Bft. km/h Grad Sektor
So, 16.06. 7:00 7 2 14 170° S
So, 16.06. 6:50 7 2 - 170° S
So, 16.06. 6:40 7 2 - 170° S
So, 16.06. 6:30 7 2 11 160° S
So, 16.06. 6:20 7 2 - 160° S
So, 16.06. 6:10 7 2 - 160° S
So, 16.06. 6:00 4 1 11 140° SO
So, 16.06. 5:30 0 0 11 - -
So, 16.06. 5:00 7 2 11 150° SO
So, 16.06. 4:30 4 1 7 140° SO
So, 16.06. 4:00 4 1 11 130° SO
Ortszeit Untergrenze Bedeckung Gattung
total tief tief mittel hoch
So, 16.06. 2:00 2100 m 4/8 3/8 - - -
Sa, 15.06. 20:00 - 0/8 0/8 - - -
Sa, 15.06. 14:00 1800 m 1/8 1/8 - - -
Sa, 15.06. 8:00 420 m 8/8 8/8 - - -
Sa, 15.06. 2:00 2100 m 8/8 8/8 - - -
Fr, 14.06. 20:00 2400 m 8/8 5/8 - - -
Fr, 14.06. 14:00 630 m 8/8 8/8 - - -
Fr, 14.06. 8:00 2100 m 7/8 7/8 - - -
Ortszeit Bedeckungsgrad in Achtel und Wolkenuntergrenze
So, 16.06. 7:00 2(1500m) 7(2700m) 7(9000m)
So, 16.06. 6:50 2(1500m) 7(2700m) 7(9000m)
So, 16.06. 6:40 7
So, 16.06. 6:30 2(1500m) 3(2100m) 7(3000m)
So, 16.06. 6:20 2(1500m) 3(2100m) 7(3000m)
So, 16.06. 6:10 8
So, 16.06. 6:00 5(1410m) 8(3000m)
So, 16.06. 5:30 3(1110m) 4(2100m) 8(2700m)
So, 16.06. 5:00 3(1800m) 6(2400m) 7(3300m)
So, 16.06. 4:30 5(1800m) 6(2100m) 8(3000m)
So, 16.06. 4:00 7(2100m) 7(3000m) 8(9000m)
Ortszeit Luftdruck NN (hPa) Tendenz (hPa in 3 Std.)
So, 16.06. 2:00 1010 + 0,1
Sa, 15.06. 20:00 1009 + 0,4
Sa, 15.06. 14:00 1009 + 0,7
Sa, 15.06. 8:00 1007 + 1,7
Sa, 15.06. 2:00 1005 - 3,0
Fr, 14.06. 20:00 1009 - 1,7
Fr, 14.06. 14:00 1012 - 0,4
Fr, 14.06. 8:00 1012 0,0
Ortszeit Luftdruck NN (hPa) Tendenz (hPa in 3 Std.)
So, 16.06. 7:00 1011 + 0,6
So, 16.06. 6:50 1011 keine Meldung
So, 16.06. 6:40 1011 keine Meldung
So, 16.06. 6:30 1011 + 0,5
So, 16.06. 6:20 1011 keine Meldung
So, 16.06. 6:10 1011 keine Meldung
So, 16.06. 6:00 1011 + 0,5
So, 16.06. 5:30 1011 + 0,4
So, 16.06. 5:00 1011 + 0,2
So, 16.06. 4:30 1010 - 0,2
So, 16.06. 4:00 1010 - 0,3
Ortszeit Schneehöhe (cm)
So, 16.06. 2:00 0
Sa, 15.06. 20:00 0
Sa, 15.06. 14:00 0
Sa, 15.06. 8:00 0
Sa, 15.06. 2:00 0
Fr, 14.06. 20:00 0
Fr, 14.06. 14:00 0
Fr, 14.06. 8:00 0
Ortszeit Schneehöhe (cm)
So, 16.06. 7:00 0
So, 16.06. 6:50 0
So, 16.06. 6:40 -
So, 16.06. 6:30 0
So, 16.06. 6:20 0
So, 16.06. 6:10 -
So, 16.06. 6:00 0
So, 16.06. 5:30 0
So, 16.06. 5:00 0
So, 16.06. 4:30 0
So, 16.06. 4:00 0
Link zu dieser Seite / Seite empfehlen

Das Wetter in ...